Погода в Каргополе

Хотите узнать прогноз погоды в Каргополе? Тогда Вам сюда: Погода в Каргополе

Поиск расширенной информации на нашем сайте:

Полезная информация:

Новости сайта



02.01.2020
Опубликован Долгосрочный прогноз погоды по городам России и ближнего зарубежья на январь 2020 года.
Карты: Прогноз на январь и февраль 2020 года, Сравнение прогнозируемой аномалии приземной температуры воздуха на январь 2020 года по разным моделям.




Погода в Каргополе - сегодня

Время (UTC), дата Ветер
(°,м/с) 
Видим.   Явления Облачность Т
(°С)
Тd
(°С)
f(%) Тe
(°С)
Pmin
(гПа)
dP
(гПа)
Po
(мм)
O2
(г/м3)
Тmin Tmax R s Состояние
почвы
21 29.11.20 110 (В) 4000 м  слаб. переохл. морось (гололёд)  10/10 120 м 
[St]
-4.9 -5 99 -4  1036.1  -0.9  765  314           
00 30.11.20 130 (ЮВ) 20000 м  {морось}  10/10 150 м 
[St]
-4.1 -4.2 99 -4  1034.9  -1.2  764  313           
03 30.11.20 140 (ЮВ) 20000 м  в посл. час снег  10/8 210 м средняя 
[Frnb|As op]
-3.3 -3.6 98 -4  1033.7  -1.1  763  312  -6.6      15  равномерный
сухой снег
100% 
06 30.11.20 140 (ЮВ) 20000 м  {снег}  10/10 210 м 
[St]
-2.1 -2.4 98 -3  1032.6  -1  762  310           
09 30.11.20 150 (ЮВ) 20000 м    10/10 120 м 
[St]
-0.8 -1 99 -2  1031.6  -0.8  762  308           
12 30.11.20 160 (Ю) 20000 м    10/8 420 м средняя 
[Frnb|As op]
+0.3 -0.8 92 -1  1029.7  -1.9  760  306           
15 30.11.20 150 (ЮВ) 20000 м    10/8 240 м средняя 
[Frnb|As op]
+0.1 -0.6 95 -2  1028  -1.7  759  306    +0.3       
18 30.11.20 160 (Ю) 4000 м  слаб. снег  10/10 300 м 
[Ns]
+0.2 -0.5 95 -2  1026.7  -1.2  758  305           
21 30.11.20 170 (Ю) 4{10}  4000 м  слаб. снег  10/10 300 м 
[Ns]
-0.2 -0.8 96 -3  1025.9  -0.9  757  306           
00 01.12.20 170 (Ю) 4000 м  слаб. снег  10/10 270 м 
[Ns]
-0.4 -0.9 96 -3  1025.5  -0.4  757  306           
03 01.12.20 180 (Ю) 5{10}  4000 м  слаб. снег  10/10 270 м 
[Ns]
-0.4 -1 96 -3  1025.4  0.1  757  306  -0.5    16  равномерный
сухой снег
100% 
06 01.12.20 170 (Ю) 4000 м  слаб. снег  10/8 240 м средняя 
[Frnb|As op]
-0.7 -1 98 -3  1025.2  -0.2  757  306  -0.7         
09 01.12.20 180 (Ю) 20000 м  {снег}  9/9 2000 м средняя 
[Ac As]
-0.6 -2.3 88 -3  1025.9  0.7  757  306           
12 01.12.20 190 (Ю) 20000 м  {снег}  10/10 420 м кучево-дожд. 
[Cb cap]
-0.9 -2.4 90 -3  1026.1  0.3  758  307           
15 01.12.20 190 (Ю) 20000 м  {ливн. осадки}  10/10 360 м кучево-дожд. 
[Cb cap]
-0.8 -1.9 92 -3  1027.1  758  307    -0.4  0.6     
21 01.12.20 190 (Ю) 4{10}  4000 м  слаб. снег  10/8 450 м средняя 
[Frnb|As op]
-0.9 -1.3 97 -3  1028  0.4  759  307           
00 02.12.20 200 (Ю) 5{11}  4000 м  слаб. снег  10/8 330 м средняя 
[Frnb|As op]
-0.9 -1.1 99 -4  1028.6  0.6  759  307           
03 02.12.20 200 (Ю) 20000 м  {снег}  10/8 360 м средняя 
[Frnb|As op]
-0.8 -1.5 95 -3  1029.4  0.8  760  307  -1    13  равномерный
сухой снег
100% 
06 02.12.20 200 (Ю) 20000 м  {снег}  10/8 270 м средняя 
[Frnb|As op]
-0.7 -1.4 95 -3  1030.6  1.2  761  308           
09 02.12.20 190 (Ю) 20000 м    10/8 300 м средняя 
[Frnb|As op]
-0.4 -1 96 -2  1031.8  1.2  762  308           
12 02.12.20 200 (Ю) 20000 м    10/8 240 м средняя 
[Frnb|As op]
-0.4 -0.8 97 -2  1032.4  0.6  762  308           
15 02.12.20 190 (Ю) 4000 м  слаб. снег  10/8 210 м средняя 
[Frnb|As op]
-0.7 -1 98 -3  1033  0.6  763  308    -0.3  0.0     
18 02.12.20 200 (Ю) 4000 м  слаб. снег  10/8 100 м средняя 
[Frnb|As op]
-0.9 -0.9 100 -3  1033.5  0.4  763  309           
21 02.12.20 190 (Ю) 2000 м  дымка{снег}  10/10 100 м 
[St]
-1.3 -1.3 100 -3  1033.8  0.3  763  309           
00 03.12.20 180 (Ю) 20000 м  {снег}  10/10 150 м 
[St]
-1.8 -2.3 96 -4  1034.1  0.2  763  310           
Время (UTC), дата Ветер
(°,м/с) 
Видим.   Явления Облачность Т
(°С)
Тd
(°С)
f(%) Тe
(°С)
Pmin
(гПа)
dP
(гПа)
Po
(мм)
O2
(г/м3)
Тmin Tmax R s Состояние
почвы

Для получения пояснительной информации подведите курсор к названию столбца.

ПОГОДА в Каргополе - архив

Всё, что Вы хотите узнать о погоде в Каргополе - удобно и подробно!

Выберите нужную дату (начиная с 1 января 2019* года) и нажмите кнопку "Найти".
Будут отображены архивные сводки погоды по пункту Каргополь, начиная с указанной даты.


Отображать данные в формате CSV (для использования в таблицах Excel)


Внимание! Наш архив погоды предназначен исключительно для личного некоммерческого использования в познавательных целях. Если Вам необходимы официальные справки о состоянии погоды (для производственных, юридических, коммерческих и т.п. целей), обращайтесь в органы Росгидромета.

*Примечание: данная дата относится к архиву по метеостанциям СССР (Россия, СНГ, Балтия).
Архив по метеостанциям Зарубежной Европы и Азии (кроме Китая) хранится 10 дней, по другим регионам земного шара (Китай, Африка, Америка, Австралия, Океания) - 1 день.

Каргополь - район местоположения метеостанции


Название, широта, долгота, высота метеостанции:
Каргополь 61.5°ш. 38.9°д. 126 м над ур. моря [Российская Федерация]

Дополнительная информация

В oтличие oт бoльшинства пoгoдных сайтoв мы публикуем пoдрoбную метеoинфoрмацию в детальнoм прoфессиoнальнoм фoрмате.

Характеристики температуры и влажнoсти вoздуха измеряются на высoте 2 м в тени вдали oт зданий и деревьев.
Скoрoсть ветра измеряется на высoте 10 м (на урoвне рoста челoвека скoрoсть ветра ниже в 1.5-2 раза). Если метеoстанция нахoдится в гoрoде или в лесу, тo скoрoсть ветра занижена на 2-4 м/с пo сравнению с oткрытым местoм. Скoрoсть ветра над акватoриями крупных рек и oзёр, а также на вершинах хoлмoв на 2-5 м/с выше, чем в oбычных услoвиях.
Атмoсфернoе давление в разных тoчках местнoсти мoжет значительнo oтличаться oт давления на метеoстанции, в зависимoсти oт услoвий рельефа (при пoдъёме на 10 м давление пoнижается примернo на 1 мм рт.ст.).